CAPE
87 72 73 90 84 72 107 131 180 199 209 196 207 255 253 169 233 335 505 277 282 224
74 76 59 47 46 96 133 112 114 196 203 204 219 183 172 132 108 299 394 429 277 155
75 65 81 84 78 62 144 115 161 155 150 182 173 131 131 12 9 45 69 120 23 66
47 45 63 77 63 57 51 102 96 65 20 14 59 86 94 1 7 11 34 124 114 152
8 14 76 90 48 54 40 63 61 54 48 36 12 68 78 59 39 51 47 69 92 98
9 28 72 63 73 55 44 34 53 65 72 47 50 50 23 48 67 87 43 31 61 110
69 76 78 59 15 47 58 33 47 53 55 66 36 13 21 36 29 59 59 84 83 63
31 64 45 35 66 66 59 42 45 42 56 53 24 1 3 37 48 56 55 68 67 38
17 38 18 64 79 77 84 76 65 59 57 66 23 0 0 0 24 24 15 18 49 28
9 2 14 16 15 23 15 4 2 5 39 55 20 0 0 0 14 14 17 15 15 25
20 17 6 47 57 57 61 57 3 10 15 14 3 0 0 0 4 9 8 9 17 46
41 56 68 50 54 65 60 16 7 13 34 44 10 0 0 0 4 14 38 42 9 25
50 63 10 13 8 10 26 21 33 60 75 10 10 0 0 0 2 61 73 54 9 0
50 61 53 70 80 58 46 91 84 100 130 95 42 2 0 0 50 76 121 36 19 0
CIN
0 0 0 0 0 0 -2 0 0 0 0 0 0 0 0 0 0 0 0 0 0 0
0 0 0 0 0 0 0 0 0 0 0 0 0 0 0 0 0 0 0 0 0 0
0 0 0 0 0 0 0 0 0 0 0 0 0 0 0 -1 -11 -5 -1 0 -6 -1
0 0 0 0 0 0 0 0 -3 0 0 0 0 -1 -1 -30 -15 -14 -9 -2 -1 0
-16 0 0 0 0 0 0 0 0 0 0 0 -18 0 0 0 0 0 0 -1 -5 -11
-12 -1 0 0 0 0 0 0 0 -1 -1 0 0 0 -1 -1 -3 -1 0 0 -4 -30
0 0 0 0 0 0 0 -1 0 0 -1 0 0 0 -1 -1 -1 -1 -1 -1 -1 -6
-2 0 -2 -3 0 0 0 0 0 0 0 0 0 0 -1 0 -1 -1 0 -2 -2 0
-2 -2 -3 0 0 0 0 0 0 0 0 0 -1 0 0 0 0 -1 0 0 0 0
-5 -46 -2 -9 -7 -4 -10 -4 0 0 0 0 -1 0 0 0 0 0 0 0 0 0
-9 0 -1 -1 0 0 0 -1 0 0 0 0 0 0 0 0 0 0 0 -2 0 0
0 0 0 -2 0 0 0 -7 -16 -16 0 -1 -1 0 0 0 -22 -7 -1 0 0 0
0 0 -4 -3 -12 -9 -1 0 0 0 0 -1 0 0 0 0 0 0 0 0 -19 0
0 0 -2 -4 -1 -2 -3 0 0 -1 0 0 -1 -30 0 0 -2 -8 -14 0 0 0
Wind_Speed
12 9 9 10 9 9 8 8 10 8 7 7 7 7 7 7 7 6 4 5 2 3
11 12 12 13 12 9 9 10 11 7 6 7 7 8 7 7 8 6 5 4 2 3
13 14 11 9 10 10 10 9 9 8 8 7 7 7 6 7 7 7 6 4 0 3
11 14 11 9 10 11 10 9 6 7 9 8 7 5 4 4 5 4 4 4 4 3
11 13 11 11 9 8 8 7 7 6 6 5 5 6 5 3 3 4 5 5 5 5
9 11 10 8 10 8 6 7 7 10 8 6 7 8 8 7 8 6 6 5 7 8
10 10 9 7 8 7 7 6 7 7 6 8 7 8 10 10 7 7 5 5 5 7
12 11 8 10 9 7 8 6 6 6 7 6 7 9 11 11 9 7 7 7 9 10
8 9 10 13 13 10 11 11 11 10 9 9 8 9 10 10 6 9 7 6 7 8
6 5 9 9 9 9 9 7 9 10 10 9 9 11 10 12 6 4 5 7 5 5
5 10 10 10 9 8 7 8 4 6 7 6 6 7 6 3 5 5 5 5 5 5
8 8 9 6 6 6 5 4 5 5 6 4 10 6 7 7 6 5 5 4 5 6
8 8 7 9 10 8 7 7 4 5 5 3 10 6 5 4 2 3 4 5 8 5
4 5 5 6 6 5 4 4 4 6 7 9 7 6 5 4 4 5 4 6 6 6
Wind_Direction
355 353 339 343 339 331 325 340 332 336 348 0 14 20 8 14 347 318 302 295 272 260
344 350 341 336 330 334 330 332 345 344 4 24 36 42 25 35 20 22 25 36 69 301
1 7 354 350 344 348 343 347 1 26 29 37 36 37 36 47 35 19 24 24 3 286
11 2 358 4 355 354 354 8 346 32 33 27 18 31 63 55 21 23 325 342 310 280
26 346 7 349 352 349 346 352 343 25 22 39 347 336 342 357 19 346 342 352 5 22
2 345 349 358 355 7 6 11 8 339 7 13 7 7 344 342 344 348 324 339 355 2
6 350 353 12 2 7 0 5 334 10 15 22 26 22 2 359 356 348 346 5 344 53
353 9 15 360 3 16 9 18 349 34 40 24 46 29 358 357 12 10 32 7 47 50
14 19 22 10 16 17 21 24 26 18 17 26 47 9 3 351 2 24 22 25 31 31
33 27 18 18 22 22 21 30 28 19 19 27 36 10 7 353 58 59 49 36 32 37
51 12 12 16 23 25 16 32 27 12 19 24 40 12 4 26 52 52 57 50 39 30
15 19 20 57 43 24 38 23 15 19 28 27 61 24 1 7 30 54 59 46 49 342
17 44 43 41 39 33 45 55 81 88 58 63 71 60 3 341 315 100 112 123 107 67
10 76 62 23 19 19 357 349 6 42 52 72 51 65 1 348 221 355 311 90 88 79